Location: Bermeries
(50.2863°N, 3.7551°E)
Time: 15:01:18
(UTC+00:00)

EXPRESS MD2 - Pass Details

Date: 23 May 2024
Orbit: 262 x 3333 km, 49.9° (Epoch: 16 June)

Event Time Altitude Azimuth Distance (km) Brightness Sun altitude
Exits shadow 01:24:20 18° 142° (SE) 1,017 4.4 -15.5°
Maximum altitude 01:24:32 19° 137° (SE) 1,030 4.5 -15.5°
Drops below altitude 10° 01:27:10 10° 91° (E) 1,740 6.2 -15.3°
Sets 01:30:32 0° 75° (ENE) 3,110 7.8 -15.1°
